SKYSAT-C7

Last updated on Fri Jul 11 2025 00:02:28 GMT+0000 (Coordinated Universal Time)

1 42991U 17068E 25191.63055103 .00005613 00000+0 18532-3 0 9994 2 42991 97.4112 322.4749 0000600 97.0203 263.1107 15.31807043430031
UTC large
Height (km)
Speed (km/s)
/
Latitude / Longitude
Inclination (degrees)
Orbital Period (minutes)
Azimuth
Elevation
Range (km)
Doppler Factor

Next 0 passes for location: London (51.5072 / 0.1276)

Sorry there are no passes over London.